• In Uzbekistan
  • List of Countries
  • For 7 days
  • Water Temperature
  • Satellite Maps
  • Weather Map
  • Weather Widgets
  • user-avatar
    Login

    Hourly Weather Mongu

    Today, 19 January, Friday

    Time Temperature Precipitation Wind Pressure Humidity
    00:00 +23°C° 0.1 mm 2 mps 672 mmHg 79%
    01:00 +21°C° 0.1 mm 2 mps 672 mmHg 81%
    02:00 +21°C° 0 mm 2 mps 672 mmHg 84%
    03:00 +20°C° 0 mm 2 mps 672 mmHg 85%
    04:00 +21°C° 0 mm 1 mps 672 mmHg 85%
    05:00 +21°C° 0 mm 1 mps 672 mmHg 86%
    06:00 +21°C° 0 mm 2 mps 672 mmHg 82%
    07:00 +23°C° 0 mm 2 mps 673 mmHg 78%
    08:00 +24°C° 0 mm 3 mps 673 mmHg 72%
    09:00 +27°C° 0 mm 3 mps 673 mmHg 62%
    10:00 +29°C° 0 mm 3 mps 674 mmHg 52%
    11:00 +32°C° 0 mm 4 mps 674 mmHg 42%
    12:00 +31°C° 0 mm 3 mps 673 mmHg 42%
    13:00 +31°C° 0 mm 3 mps 672 mmHg 41%
    14:00 +32°C° 0 mm 2 mps 672 mmHg 40%
    15:00 +32°C° 0 mm 2 mps 671 mmHg 40%
    16:00 +32°C° 0 mm 2 mps 671 mmHg 40%
    17:00 +32°C° 0 mm 2 mps 671 mmHg 39%
    18:00 +30°C° 0 mm 2 mps 671 mmHg 45%
    19:00 +28°C° 0 mm 2 mps 671 mmHg 50%
    20:00 +26°C° 0 mm 1 mps 671 mmHg 55%
    21:00 +26°C° 0 mm 2 mps 671 mmHg 58%
    22:00 +25°C° 0 mm 2 mps 672 mmHg 61%
    23:00 +24°C° 0 mm 2 mps 672 mmHg 64%

    Tomorrow, 20 January, Saturday

    Time Temperature Precipitation Wind Pressure Humidity
    00:00 +24°C° 0 mm 2 mps 672 mmHg 69%
    01:00 +23°C° 0 mm 2 mps 672 mmHg 74%
    02:00 +21°C° 0 mm 2 mps 671 mmHg 79%
    03:00 +21°C° 0 mm 2 mps 671 mmHg 82%
    04:00 +20°C° 0 mm 2 mps 671 mmHg 85%
    05:00 +20°C° 0 mm 2 mps 671 mmHg 88%
    06:00 +21°C° 0 mm 2 mps 672 mmHg 84%
    07:00 +23°C° 0 mm 2 mps 672 mmHg 80%
    08:00 +24°C° 0 mm 3 mps 673 mmHg 75%
    09:00 +26°C° 0 mm 3 mps 673 mmHg 65%
    10:00 +29°C° 0 mm 3 mps 673 mmHg 55%
    11:00 +31°C° 0 mm 3 mps 674 mmHg 45%
    12:00 +33°C° 0 mm 3 mps 673 mmHg 40%
    13:00 +34°C° 0 mm 3 mps 673 mmHg 35%
    14:00 +36°C° 0 mm 2 mps 672 mmHg 30%
    15:00 +35°C° 0 mm 2 mps 672 mmHg 33%
    16:00 +34°C° 0 mm 2 mps 671 mmHg 36%
    17:00 +32°C° 0 mm 2 mps 671 mmHg 39%
    18:00 +30°C° 0 mm 2 mps 671 mmHg 44%
    19:00 +29°C° 0 mm 2 mps 671 mmHg 49%
    20:00 +27°C° 0 mm 2 mps 672 mmHg 54%
    21:00 +26°C° 0.2 mm 2 mps 672 mmHg 62%
    22:00 +25°C° 0.2 mm 2 mps 672 mmHg 69%
    23:00 +24°C° 0.2 mm 3 mps 673 mmHg 77%

    Day after tomorrow, 21 January, Sunday

    Time Temperature Precipitation Wind Pressure Humidity
    00:00 +22°C° 0.1 mm 3 mps 672 mmHg 81%
    01:00 +21°C° 0.1 mm 2 mps 672 mmHg 84%
    02:00 +21°C° 0.1 mm 2 mps 671 mmHg 88%
    03:00 +20°C° 0 mm 2 mps 671 mmHg 89%
    04:00 +20°C° 0 mm 2 mps 672 mmHg 90%
    05:00 +19°C° 0 mm 2 mps 672 mmHg 91%
    06:00 +20°C° 0 mm 2 mps 672 mmHg 87%
    07:00 +21°C° 0 mm 3 mps 673 mmHg 83%
    08:00 +22°C° 0 mm 3 mps 674 mmHg 79%
    09:00 +26°C° 0 mm 3 mps 674 mmHg 69%
    10:00 +28°C° 0 mm 3 mps 674 mmHg 59%
    11:00 +31°C° 0 mm 3 mps 675 mmHg 48%
    12:00 +31°C° 0 mm 3 mps 674 mmHg 47%
    13:00 +31°C° 0 mm 2 mps 674 mmHg 45%
    14:00 +31°C° 0 mm 2 mps 673 mmHg 44%
    15:00 +31°C° 0 mm 2 mps 672 mmHg 43%
    16:00 +31°C° 0 mm 2 mps 672 mmHg 42%
    17:00 +31°C° 0 mm 2 mps 672 mmHg 42%
    18:00 +30°C° 0 mm 2 mps 672 mmHg 49%
    19:00 +28°C° 0 mm 2 mps 672 mmHg 55%
    20:00 +26°C° 0 mm 2 mps 672 mmHg 62%
    21:00 +25°C° 0 mm 2 mps 672 mmHg 66%
    22:00 +24°C° 0 mm 2 mps 673 mmHg 69%
    23:00 +23°C° 0 mm 2 mps 673 mmHg 73%

    22 January, Monday

    Time Temperature Precipitation Wind Pressure Humidity
    00:00 +23°C° 0 mm 2 mps 672 mmHg 74%
    01:00 +21°C° 0 mm 2 mps 672 mmHg 76%
    02:00 +21°C° 0 mm 2 mps 672 mmHg 78%
    03:00 +21°C° 0.1 mm 1 mps 672 mmHg 80%
    04:00 +21°C° 0.1 mm 1 mps 672 mmHg 83%
    05:00 +21°C° 0.1 mm 1 mps 672 mmHg 85%
    06:00 +22°C° 0 mm 1 mps 672 mmHg 83%
    07:00 +22°C° 0 mm 1 mps 673 mmHg 81%
    08:00 +23°C° 0 mm 1 mps 674 mmHg 79%
    09:00 +25°C° 0 mm 1 mps 674 mmHg 70%
    10:00 +27°C° 0 mm 1 mps 674 mmHg 61%
    11:00 +30°C° 0 mm 1 mps 675 mmHg 53%
    12:00 +30°C° 0 mm 1 mps 674 mmHg 48%
    13:00 +31°C° 0 mm 1 mps 673 mmHg 44%
    14:00 +32°C° 0 mm 1 mps 672 mmHg 40%
    15:00 +32°C° 0 mm 2 mps 672 mmHg 40%
    16:00 +31°C° 0 mm 2 mps 671 mmHg 41%
    17:00 +31°C° 0 mm 2 mps 671 mmHg 41%
    18:00 +29°C° 0 mm 2 mps 671 mmHg 46%
    19:00 +28°C° 0 mm 1 mps 671 mmHg 51%
    20:00 +26°C° 0 mm 1 mps 671 mmHg 56%
    21:00 +25°C° 0 mm 1 mps 672 mmHg 59%
    22:00 +25°C° 0 mm 1 mps 672 mmHg 63%
    23:00 +24°C° 0 mm 1 mps 672 mmHg 66%

    23 January, Tuesday

    Time Temperature Precipitation Wind Pressure Humidity
    00:00 +23°C° 0 mm 2 mps 672 mmHg 72%
    01:00 +23°C° 0 mm 2 mps 671 mmHg 77%
    02:00 +21°C° 0 mm 2 mps 671 mmHg 83%
    03:00 +20°C° 0 mm 2 mps 671 mmHg 86%
    04:00 +20°C° 0 mm 2 mps 671 mmHg 90%
    05:00 +20°C° 0 mm 1 mps 670 mmHg 93%
    06:00 +21°C° 0 mm 1 mps 671 mmHg 86%
    07:00 +23°C° 0 mm 1 mps 672 mmHg 80%
    08:00 +24°C° 0 mm 2 mps 673 mmHg 73%
    09:00 +26°C° 0 mm 2 mps 673 mmHg 64%
    10:00 +29°C° 0 mm 2 mps 673 mmHg 55%
    11:00 +31°C° 0 mm 2 mps 673 mmHg 46%
    12:00 +31°C° 0 mm 2 mps 672 mmHg 46%
    13:00 +31°C° 0 mm 2 mps 672 mmHg 45%
    14:00 +31°C° 0 mm 2 mps 671 mmHg 45%
    15:00 +31°C° 0 mm 2 mps 671 mmHg 46%
    16:00 +31°C° 0 mm 2 mps 670 mmHg 47%
    17:00 +30°C° 0 mm 2 mps 670 mmHg 48%
    18:00 +29°C° 0 mm 1 mps 670 mmHg 53%
    19:00 +27°C° 0 mm 1 mps 670 mmHg 58%
    20:00 +26°C° 0 mm 1 mps 671 mmHg 63%
    21:00 +25°C° 0.3 mm 1 mps 671 mmHg 68%
    22:00 +24°C° 0.3 mm 1 mps 671 mmHg 72%
    23:00 +23°C° 0.3 mm 2 mps 671 mmHg 77%

    24 January, Wednesday

    Time Temperature Precipitation Wind Pressure Humidity
    00:00 +21°C° 0.5 mm 2 mps 671 mmHg 82%
    01:00 +20°C° 0.5 mm 2 mps 671 mmHg 88%
    02:00 +20°C° 0.5 mm 2 mps 670 mmHg 93%
    03:00 +19°C° 0.2 mm 2 mps 670 mmHg 94%
    04:00 +19°C° 0.2 mm 2 mps 671 mmHg 95%
    05:00 +19°C° 0.2 mm 2 mps 671 mmHg 95%
    06:00 +20°C° 0.1 mm 2 mps 671 mmHg 91%
    07:00 +21°C° 0.1 mm 2 mps 672 mmHg 87%
    08:00 +23°C° 0.1 mm 2 mps 673 mmHg 83%
    09:00 +25°C° 0.2 mm 2 mps 673 mmHg 72%
    10:00 +27°C° 0.2 mm 2 mps 673 mmHg 61%
    11:00 +30°C° 0.2 mm 3 mps 673 mmHg 50%
    12:00 +31°C° 0 mm 2 mps 673 mmHg 45%
    13:00 +32°C° 0 mm 2 mps 672 mmHg 41%
    14:00 +34°C° 0 mm 2 mps 672 mmHg 36%
    15:00 +33°C° 0 mm 1 mps 672 mmHg 38%
    16:00 +32°C° 0 mm 1 mps 671 mmHg 39%
    17:00 +32°C° 0 mm 1 mps 671 mmHg 41%
    18:00 +30°C° 0 mm 1 mps 671 mmHg 45%
    19:00 +29°C° 0 mm 1 mps 671 mmHg 48%
    20:00 +28°C° 0 mm 1 mps 671 mmHg 52%
    21:00 +27°C° 0.1 mm 1 mps 671 mmHg 56%
    22:00 +26°C° 0.1 mm 1 mps 671 mmHg 61%
    23:00 +25°C° 0.1 mm 1 mps 671 mmHg 65%
    Show more